Location: Unspecified
(0.0000°N, 0.0000°E)
Time: 06:31:20
(UTC+02:00)

Centaur D-1AR AC-41 - Visible Passes

Search period start: 23 October 2014 00:00
Search period end: 01 November 2014 23:00
Orbit: 655 x 36188 km, 21.3° (Epoch: 21 October)

Date Brightness Start Highest point End Pass type
(mag) Time Alt. Az. Time Alt. Az. Time Alt. Az.
23 Oct 10.0 02:54:06 10° W 03:44:46 14° W 05:00:07 10° W visible
23 Oct 7.6 23:34:02 10° WNW 01:14:28 54° W 09:38:57 10° E visible
24 Oct 8.6 20:54:36 10° WNW 23:57:03 86° SSE 07:06:39 10° ESE visible
25 Oct 7.5 18:21:50 10° NW 01:37:25 70° SSE 03:30:34 10° ESE visible
26 Oct 9.5 18:24:38 10° E 22:55:13 38° ESE 00:42:16 10° ESE visible
28 Oct 9.6 00:02:54 10° WNW 01:28:09 30° W 04:52:32 10° W visible
28 Oct 8.9 21:11:50 10° WNW 22:55:22 72° W 07:21:40 10° ESE visible
29 Oct 8.2 18:36:18 10° NW 23:35:18 78° SSE 04:48:12 10° ESE visible
30 Oct 6.9 16:04:46 10° NW 23:56:44 58° SE 02:08:41 10° ESE visible
31 Oct 9.8 19:10:57 10° ESE 21:41:36 22° ESE 23:03:49 10° ESE visible
01 Nov 9.4 22:33:21 10° WNW 23:00:00 34° WNW 23:00:00 34° WNW visible
